Wetterdaten: aktuell Donnerstag, 14.11.2019 17:45
Datum Zeit Temp. I. Temp. A. Feuchte I. Feuchte A. Luftdruck Regen Wind Richtung Richtung Sonnenschein ET UV Solar Taupunkt Windchill Windben Empfang
14.11.2019 17:45 25,6 C 3,8 C 33 % 80 % 1005,5 hPa 0,0 l/m 3,5 km/h (1 Bft) NO 53 0 min 0,000 mm 0,0 UV-I 0 W/m 0,7 C 3,8 C 16,1 km/h (3 Bft) 100,00 %
14.11.2019 17:30 25,7 C 4,0 C 33 % 80 % 1005,4 hPa 0,0 l/m 3,2 km/h (1 Bft) NO 37 0 min 0,000 mm 0,0 UV-I 0 W/m 0,9 C 4,0 C 17,7 km/h (3 Bft) 100,00 %
14.11.2019 17:15 25,8 C 4,2 C 33 % 80 % 1005,7 hPa 0,0 l/m 2,0 km/h (1 Bft) N-NO 29 0 min 0,000 mm 0,0 UV-I 0 W/m 1,1 C 4,2 C 12,9 km/h (3 Bft) 97,75 %
14.11.2019 17:00 25,8 C 4,2 C 33 % 81 % 1005,6 hPa 0,0 l/m 1,4 km/h (1 Bft) NO 34 0 min 0,000 mm 0,0 UV-I 0 W/m 1,2 C 4,2 C 12,9 km/h (3 Bft) 97,46 %
14.11.2019 16:45 25,8 C 4,4 C 33 % 81 % 1005,5 hPa 0,0 l/m 2,0 km/h (1 Bft) NO 44 0 min 0,000 mm 0,0 UV-I 0 W/m 1,4 C 4,4 C 12,9 km/h (3 Bft) 97,38 %
14.11.2019 16:30 25,8 C 4,7 C 33 % 81 % 1005,5 hPa 0,0 l/m 0,8 km/h (0 Bft) O-NO 73 0 min 0,000 mm 0,0 UV-I 7 W/m 1,7 C 4,7 C 8,0 km/h (2 Bft) 98,03 %
14.11.2019 16:15 25,9 C 5,0 C 33 % 81 % 1005,5 hPa 0,0 l/m 1,2 km/h (1 Bft) N-NO 30 15 min 0,000 mm 0,0 UV-I 13 W/m 2,0 C 5,0 C 11,3 km/h (2 Bft) 100,00 %
14.11.2019 16:00 26,1 C 5,5 C 32 % 79 % 1005,5 hPa 0,0 l/m 1,6 km/h (1 Bft) O-NO 73 0 min 0,025 mm 0,0 UV-I 20 W/m 2,2 C 5,5 C 9,7 km/h (2 Bft) 100,00 %
14.11.2019 15:45 26,2 C 5,9 C 32 % 77 % 1005,6 hPa 0,0 l/m 2,4 km/h (1 Bft) NO 56 0 min 0,000 mm 0,0 UV-I 24 W/m 2,2 C 5,9 C 14,5 km/h (3 Bft) 100,00 %
14.11.2019 15:30 26,2 C 6,4 C 32 % 75 % 1005,6 hPa 0,0 l/m 1,3 km/h (1 Bft) NO 39 0 min 0,000 mm 0,0 UV-I 29 W/m 2,3 C 6,4 C 11,3 km/h (2 Bft) 99,71 %
14.11.2019 15:15 26,1 C 6,8 C 32 % 73 % 1005,9 hPa 0,0 l/m 2,3 km/h (1 Bft) NO 34 0 min 0,000 mm 0,0 UV-I 43 W/m 2,3 C 6,8 C 14,5 km/h (3 Bft) 100,00 %
14.11.2019 15:00 26,1 C 7,1 C 32 % 73 % 1006,0 hPa 0,0 l/m 2,1 km/h (1 Bft) SW 215 15 min 0,051 mm 0,0 UV-I 158 W/m 2,6 C 7,1 C 14,5 km/h (3 Bft) 100,00 %
14.11.2019 14:45 26,0 C 6,9 C 32 % 73 % 1005,9 hPa 0,0 l/m 1,1 km/h (1 Bft) O-SO 102 15 min 0,000 mm 0,0 UV-I 133 W/m 2,4 C 6,9 C 8,0 km/h (2 Bft) 99,72 %
14.11.2019 14:30 26,0 C 6,8 C 32 % 72 % 1005,9 hPa 0,0 l/m 1,3 km/h (1 Bft) O-SO 112 0 min 0,000 mm 0,0 UV-I 110 W/m 2,1 C 6,8 C 8,0 km/h (2 Bft) 100,00 %
14.11.2019 14:15 26,1 C 6,9 C 32 % 71 % 1006,0 hPa 0,0 l/m 1,6 km/h (1 Bft) S-SW 194 0 min 0,000 mm 0,0 UV-I 120 W/m 2,0 C 6,9 C 12,9 km/h (3 Bft) 97,18 %
14.11.2019 14:00 26,2 C 7,1 C 32 % 71 % 1006,1 hPa 0,0 l/m 0,8 km/h (0 Bft) SW 231 0 min 0,102 mm 0,0 UV-I 121 W/m 2,2 C 7,1 C 6,4 km/h (2 Bft) 97,75 %
14.11.2019 13:45 26,2 C 7,3 C 32 % 69 % 1006,2 hPa 0,0 l/m 2,3 km/h (1 Bft) N-NO 25 0 min 0,000 mm 0,3 UV-I 108 W/m 2,0 C 7,3 C 17,7 km/h (3 Bft) 98,83 %
14.11.2019 13:30 26,2 C 7,8 C 32 % 67 % 1006,1 hPa 0,0 l/m 4,0 km/h (1 Bft) O-SO 102 15 min 0,000 mm 0,6 UV-I 241 W/m 2,1 C 7,8 C 22,5 km/h (4 Bft) 100,00 %
14.11.2019 13:15 26,1 C 7,9 C 32 % 70 % 1006,3 hPa 0,0 l/m 2,8 km/h (1 Bft) S-SW 213 15 min 0,000 mm 0,7 UV-I 299 W/m 2,8 C 7,9 C 14,5 km/h (3 Bft) 100,00 %
14.11.2019 13:00 26,1 C 7,4 C 32 % 72 % 1006,4 hPa 0,0 l/m 4,1 km/h (1 Bft) N-NO 32 15 min 0,127 mm 0,7 UV-I 276 W/m 2,7 C 7,4 C 12,9 km/h (3 Bft) 100,00 %
14.11.2019 12:45 26,2 C 7,1 C 32 % 74 % 1006,3 hPa 0,0 l/m 2,4 km/h (1 Bft) O-SO 108 15 min 0,000 mm 0,8 UV-I 332 W/m 2,8 C 7,1 C 12,9 km/h (3 Bft) 100,00 %
14.11.2019 12:30 26,4 C 6,4 C 32 % 79 % 1006,2 hPa 0,0 l/m 0,9 km/h (0 Bft) W 260 15 min 0,000 mm 0,8 UV-I 312 W/m 3,0 C 6,4 C 9,7 km/h (2 Bft) 99,71 %
14.11.2019 12:15 26,5 C 6,0 C 32 % 79 % 1006,2 hPa 0,0 l/m 1,5 km/h (1 Bft) O 82 0 min 0,000 mm 0,7 UV-I 144 W/m 2,6 C 6,0 C 8,0 km/h (2 Bft) 98,03 %
14.11.2019 12:00 26,3 C 5,7 C 33 % 79 % 1006,3 hPa 0,0 l/m 2,5 km/h (1 Bft) N 5 15 min 0,127 mm 0,8 UV-I 318 W/m 2,3 C 5,7 C 11,3 km/h (2 Bft) 98,03 %
14.11.2019 11:45 25,9 C 5,6 C 33 % 80 % 1006,2 hPa 0,0 l/m 1,2 km/h (1 Bft) O-NO 57 15 min 0,000 mm 0,8 UV-I 294 W/m 2,4 C 5,6 C 8,0 km/h (2 Bft) 100,00 %
14.11.2019 11:30 25,7 C 5,3 C 33 % 82 % 1006,3 hPa 0,0 l/m 1,9 km/h (1 Bft) NO 56 15 min 0,000 mm 0,8 UV-I 283 W/m 2,5 C 5,3 C 9,7 km/h (2 Bft) 100,00 %
14.11.2019 11:15 25,9 C 4,7 C 33 % 85 % 1006,5 hPa 0,0 l/m 1,1 km/h (1 Bft) NO 36 15 min 0,000 mm 0,8 UV-I 295 W/m 2,4 C 4,7 C 9,7 km/h (2 Bft) 100,00 %
14.11.2019 11:00 26,1 C 4,0 C 33 % 88 % 1006,8 hPa 0,0 l/m 1,2 km/h (1 Bft) O 88 15 min 0,051 mm 0,7 UV-I 231 W/m 2,2 C 4,0 C 8,0 km/h (2 Bft) 99,44 %
14.11.2019 10:45 26,1 C 3,4 C 33 % 90 % 1006,9 hPa 0,0 l/m 1,7 km/h (1 Bft) SW 222 0 min 0,000 mm 0,5 UV-I 147 W/m 1,9 C 3,4 C 8,0 km/h (2 Bft) 98,38 %
14.11.2019 10:30 26,0 C 3,1 C 33 % 91 % 1007,1 hPa 0,0 l/m 2,8 km/h (1 Bft) NO 37 15 min 0,000 mm 0,5 UV-I 182 W/m 1,8 C 3,1 C 11,3 km/h (2 Bft) 97,29 %
14.11.2019 10:15 25,9 C 2,7 C 33 % 93 % 1007,1 hPa 0,0 l/m 2,1 km/h (1 Bft) SO 128 0 min 0,000 mm 0,1 UV-I 89 W/m 1,7 C 2,7 C 9,7 km/h (2 Bft) 98,87 %
14.11.2019 10:00 25,7 C 2,4 C 33 % 93 % 1006,9 hPa 0,0 l/m 2,0 km/h (1 Bft) S-SW 210 0 min 0,025 mm 0,0 UV-I 57 W/m 1,4 C 2,4 C 8,0 km/h (2 Bft) 99,71 %
14.11.2019 09:45 25,8 C 2,1 C 33 % 94 % 1006,8 hPa 0,0 l/m 2,0 km/h (1 Bft) O-SO 113 0 min 0,000 mm 0,0 UV-I 54 W/m 1,2 C 2,1 C 12,9 km/h (3 Bft) 100,00 %
14.11.2019 09:30 25,9 C 1,8 C 33 % 94 % 1006,5 hPa 0,0 l/m 2,6 km/h (1 Bft) SW 215 0 min 0,000 mm 0,0 UV-I 44 W/m 0,9 C 1,8 C 11,3 km/h (2 Bft) 99,72 %
14.11.2019 09:15 26,0 C 1,6 C 33 % 95 % 1006,3 hPa 0,0 l/m 2,9 km/h (1 Bft) W-SW 258 0 min 0,000 mm 0,0 UV-I 38 W/m 0,9 C 1,6 C 14,5 km/h (3 Bft) 100,00 %
14.11.2019 09:00 26,1 C 1,3 C 33 % 95 % 1006,1 hPa 0,0 l/m 2,0 km/h (1 Bft) O 80 0 min 0,000 mm 0,0 UV-I 33 W/m 0,6 C 1,3 C 11,3 km/h (2 Bft) 100,00 %
14.11.2019 08:46 26,1 C 1,1 C 33 % 95 % 1006,0 hPa 0,0 l/m 2,1 km/h (1 Bft) O 95 0 min 0,000 mm 0,0 UV-I 27 W/m 0,4 C 1,1 C 11,3 km/h (2 Bft) 100,00 %
14.11.2019 08:30 26,1 C 0,9 C 33 % 95 % 1005,9 hPa 0,0 l/m 2,2 km/h (1 Bft) O 92 0 min 0,000 mm 0,0 UV-I 24 W/m 0,2 C 0,9 C 11,3 km/h (2 Bft) 100,00 %
14.11.2019 08:15 26,1 C 0,7 C 33 % 94 % 1005,8 hPa 0,0 l/m 2,6 km/h (1 Bft) O-SO 120 0 min 0,000 mm 0,0 UV-I 19 W/m -0,2 C 0,7 C 12,9 km/h (3 Bft) 99,42 %
14.11.2019 08:00 26,1 C 0,6 C 33 % 94 % 1005,5 hPa 0,0 l/m 1,6 km/h (1 Bft) N-NO 21 0 min 0,000 mm 0,0 UV-I 13 W/m -0,3 C 0,6 C 8,0 km/h (2 Bft) 96,62 %
14.11.2019 07:45 26,0 C 0,3 C 33 % 94 % 1005,2 hPa 0,0 l/m 1,2 km/h (1 Bft) NO 43 0 min 0,000 mm 0,0 UV-I 8 W/m -0,5 C 0,3 C 9,7 km/h (2 Bft) 97,75 %
14.11.2019 07:30 25,9 C 0,3 C 33 % 94 % 1005,2 hPa 0,0 l/m 0,2 km/h (0 Bft) O 79 0 min 0,000 mm 0,0 UV-I 1 W/m -0,5 C 0,3 C 3,2 km/h (1 Bft) 96,50 %
14.11.2019 07:15 25,8 C 0,3 C 33 % 93 % 1004,8 hPa 0,0 l/m 1,1 km/h (1 Bft) O-SO 106 0 min 0,000 mm 0,0 UV-I 0 W/m -0,7 C 0,3 C 8,0 km/h (2 Bft) 98,59 %
14.11.2019 07:00 25,8 C 0,2 C 33 % 93 % 1004,8 hPa 0,0 l/m 0,2 km/h (0 Bft) S-SW 208 0 min 0,000 mm 0,0 UV-I 0 W/m -0,8 C 0,2 C 8,0 km/h (2 Bft) 99,72 %
14.11.2019 06:45 25,8 C 0,1 C 33 % 92 % 1004,8 hPa 0,0 l/m 0,0 km/h (0 Bft) N 359 0 min 0,000 mm 0,0 UV-I 0 W/m -1,0 C 0,1 C 1,6 km/h (1 Bft) 99,42 %
14.11.2019 06:30 26,0 C 0,3 C 33 % 92 % 1004,7 hPa 0,0 l/m 0,0 km/h (0 Bft) N 359 0 min 0,000 mm 0,0 UV-I 0 W/m -0,8 C 0,3 C 0,0 km/h (0 Bft) 100,00 %
14.11.2019 06:15 26,0 C 0,6 C 33 % 92 % 1004,7 hPa 0,0 l/m 0,0 km/h (0 Bft) N 359 0 min 0,000 mm 0,0 UV-I 0 W/m -0,5 C 0,6 C 1,6 km/h (1 Bft) 100,00 %
14.11.2019 06:00 25,7 C 0,8 C 34 % 92 % 1004,6 hPa 0,0 l/m 0,0 km/h (0 Bft) N 359 0 min 0,000 mm 0,0 UV-I 0 W/m -0,3 C 0,8 C 1,6 km/h (1 Bft) 99,71 %
14.11.2019 05:45 25,4 C 0,9 C 34 % 91 % 1004,5 hPa 0,0 l/m 0,0 km/h (0 Bft) N 359 0 min 0,000 mm 0,0 UV-I 0 W/m -0,4 C 0,9 C 0,0 km/h (0 Bft) 100,00 %
14.11.2019 05:30 25,4 C 1,1 C 34 % 91 % 1004,5 hPa 0,0 l/m 0,0 km/h (0 Bft) N 359 0 min 0,000 mm 0,0 UV-I 0 W/m -0,2 C 1,1 C 1,6 km/h (1 Bft) 99,42 %
14.11.2019 05:15 25,4 C 1,3 C 34 % 91 % 1004,3 hPa 0,0 l/m 0,0 km/h (0 Bft) N 359 0 min 0,000 mm 0,0 UV-I 0 W/m -0,0 C 1,3 C 1,6 km/h (1 Bft) 99,72 %
14.11.2019 05:00 25,3 C 1,6 C 34 % 91 % 1004,1 hPa 0,0 l/m 0,3 km/h (0 Bft) N 359 0 min 0,000 mm 0,0 UV-I 0 W/m 0,3 C 1,6 C 3,2 km/h (1 Bft) 99,15 %
14.11.2019 04:45 25,3 C 1,7 C 34 % 91 % 1003,9 hPa 0,0 l/m 0,1 km/h (0 Bft) N 359 0 min 0,000 mm 0,0 UV-I 0 W/m 0,4 C 1,7 C 1,6 km/h (1 Bft) 97,67 %
14.11.2019 04:30 25,2 C 2,0 C 34 % 91 % 1003,9 hPa 0,0 l/m 0,1 km/h (0 Bft) N 359 0 min 0,000 mm 0,0 UV-I 0 W/m 0,7 C 2,0 C 4,8 km/h (1 Bft) 97,47 %
14.11.2019 04:15 25,1 C 2,1 C 34 % 91 % 1003,9 hPa 0,0 l/m 0,2 km/h (0 Bft) N 358 0 min 0,000 mm 0,0 UV-I 0 W/m 0,8 C 2,1 C 3,2 km/h (1 Bft) 98,31 %
14.11.2019 04:00 25,1 C 2,1 C 34 % 91 % 1003,9 hPa 0,0 l/m 0,2 km/h (0 Bft) W-NW 287 0 min 0,000 mm 0,0 UV-I 0 W/m 0,8 C 2,1 C 3,2 km/h (1 Bft) 100,00 %
14.11.2019 03:45 25,0 C 2,2 C 34 % 91 % 1004,0 hPa 0,0 l/m 0,0 km/h (0 Bft) SW 227 0 min 0,000 mm 0,0 UV-I 0 W/m 0,9 C 2,2 C 1,6 km/h (1 Bft) 100,00 %
14.11.2019 03:30 25,0 C 2,2 C 34 % 91 % 1004,0 hPa 0,0 l/m 0,0 km/h (0 Bft) SW 227 0 min 0,000 mm 0,0 UV-I 0 W/m 0,9 C 2,2 C 1,6 km/h (1 Bft) 99,44 %
14.11.2019 03:15 24,9 C 2,2 C 34 % 91 % 1003,9 hPa 0,0 l/m 0,2 km/h (0 Bft) S 189 0 min 0,000 mm 0,0 UV-I 0 W/m 0,9 C 2,2 C 4,8 km/h (1 Bft) 100,00 %
14.11.2019 03:00 24,9 C 2,1 C 35 % 90 % 1003,9 hPa 0,0 l/m 0,3 km/h (0 Bft) S-SW 207 0 min 0,000 mm 0,0 UV-I 0 W/m 0,6 C 2,1 C 6,4 km/h (2 Bft) 99,71 %
14.11.2019 02:45 24,9 C 1,9 C 35 % 89 % 1004,0 hPa 0,0 l/m 0,0 km/h (0 Bft) S-SW 210 0 min 0,000 mm 0,0 UV-I 0 W/m 0,3 C 1,9 C 0,0 km/h (0 Bft) 99,42 %
14.11.2019 02:30 24,8 C 2,1 C 35 % 89 % 1004,0 hPa 0,0 l/m 0,0 km/h (0 Bft) S-SW 210 0 min 0,000 mm 0,0 UV-I 0 W/m 0,5 C 2,1 C 1,6 km/h (1 Bft) 100,00 %
14.11.2019 02:15 24,8 C 2,3 C 35 % 88 % 1004,0 hPa 0,0 l/m 0,0 km/h (0 Bft) S-SW 210 0 min 0,000 mm 0,0 UV-I 0 W/m 0,5 C 2,3 C 0,0 km/h (0 Bft) 99,72 %
14.11.2019 02:00 24,9 C 2,8 C 35 % 88 % 1003,9 hPa 0,0 l/m 0,0 km/h (0 Bft) S-SW 210 0 min 0,000 mm 0,0 UV-I 0 W/m 1,0 C 2,8 C 0,0 km/h (0 Bft) 97,38 %
14.11.2019 01:45 24,9 C 3,1 C 34 % 88 % 1004,0 hPa 0,0 l/m 0,0 km/h (0 Bft) S-SW 210 0 min 0,000 mm 0,0 UV-I 0 W/m 1,3 C 3,1 C 0,0 km/h (0 Bft) 97,49 %
14.11.2019 01:30 24,9 C 3,2 C 34 % 88 % 1004,2 hPa 0,0 l/m 0,0 km/h (0 Bft) S-SW 210 0 min 0,000 mm 0,0 UV-I 0 W/m 1,4 C 3,2 C 1,6 km/h (1 Bft) 97,38 %
14.11.2019 01:15 25,1 C 3,2 C 34 % 88 % 1004,2 hPa 0,0 l/m 0,2 km/h (0 Bft) S-SW 210 0 min 0,000 mm 0,0 UV-I 0 W/m 1,4 C 3,2 C 3,2 km/h (1 Bft) 99,30 %
14.11.2019 01:00 25,2 C 3,2 C 34 % 88 % 1004,1 hPa 0,0 l/m 0,0 km/h (0 Bft) S-SW 208 0 min 0,000 mm 0,0 UV-I 0 W/m 1,4 C 3,2 C 0,0 km/h (0 Bft) 100,00 %
14.11.2019 00:59 25,2 C 3,2 C 34 % 88 % 1004,1 hPa 0,0 l/m 0,5 km/h (0 Bft) S-SW 208 0 min 0,000 mm 0,0 UV-I 0 W/m 1,4 C 3,2 C 3,2 km/h (1 Bft) 100,00 %
14.11.2019 00:58 25,2 C 3,2 C 34 % 88 % 1004,1 hPa 0,0 l/m 0,0 km/h (0 Bft) S-SW 208 0 min 0,000 mm 0,0 UV-I 0 W/m 1,4 C 3,2 C 0,0 km/h (0 Bft) 100,00 %
14.11.2019 00:57 25,2 C 3,2 C 34 % 88 % 1004,1 hPa 0,0 l/m 0,0 km/h (0 Bft) S-SW 208 0 min 0,000 mm 0,0 UV-I 0 W/m 1,4 C 3,2 C 0,0 km/h (0 Bft) 100,00 %
14.11.2019 00:56 25,2 C 3,2 C 34 % 88 % 1004,1 hPa 0,0 l/m 0,0 km/h (0 Bft) S-SW 208 0 min 0,000 mm 0,0 UV-I 0 W/m 1,4 C 3,2 C 0,0 km/h (0 Bft) 100,00 %
14.11.2019 00:55 25,2 C 3,2 C 34 % 88 % 1004,2 hPa 0,0 l/m 0,7 km/h (0 Bft) S-SW 208 0 min 0,000 mm 0,0 UV-I 0 W/m 1,4 C 3,2 C 3,2 km/h (1 Bft) 100,00 %
14.11.2019 00:54 25,2 C 3,2 C 34 % 88 % 1004,1 hPa 0,0 l/m 0,0 km/h (0 Bft) S-SW 208 0 min 0,000 mm 0,0 UV-I 0 W/m 1,4 C 3,2 C 0,0 km/h (0 Bft) 100,00 %
14.11.2019 00:53 25,2 C 3,2 C 34 % 88 % 1004,2 hPa 0,0 l/m 1,8 km/h (1 Bft) S-SW 208 0 min 0,000 mm 0,0 UV-I 0 W/m 1,4 C 3,2 C 3,2 km/h (1 Bft) 100,00 %
14.11.2019 00:52 25,2 C 3,2 C 34 % 88 % 1004,2 hPa 0,0 l/m 0,6 km/h (0 Bft) S-SW 208 0 min 0,000 mm 0,0 UV-I 0 W/m 1,4 C 3,2 C 3,2 km/h (1 Bft) 100,00 %
14.11.2019 00:51 25,2 C 3,2 C 34 % 88 % 1004,2 hPa 0,0 l/m 0,0 km/h (0 Bft) S-SW 208 0 min 0,000 mm 0,0 UV-I 0 W/m 1,4 C 3,2 C 0,0 km/h (0 Bft) 100,00 %
14.11.2019 00:50 25,2 C 3,2 C 34 % 88 % 1004,2 hPa 0,0 l/m 1,6 km/h (1 Bft) S-SW 208 0 min 0,000 mm 0,0 UV-I 0 W/m 1,4 C 3,2 C 6,4 km/h (2 Bft) 100,00 %
14.11.2019 00:49 25,2 C 3,2 C 34 % 88 % 1004,2 hPa 0,0 l/m 0,1 km/h (0 Bft) SW 236 0 min 0,000 mm 0,0 UV-I 0 W/m 1,4 C 3,2 C 1,6 km/h (1 Bft) 100,00 %
14.11.2019 00:48 25,2 C 3,2 C 34 % 88 % 1004,2 hPa 0,0 l/m 0,0 km/h (0 Bft) SW 236 0 min 0,000 mm 0,0 UV-I 0 W/m 1,4 C 3,2 C 0,0 km/h (0 Bft) 100,00 %
14.11.2019 00:47 25,2 C 3,2 C 34 % 88 % 1004,2 hPa 0,0 l/m 0,0 km/h (0 Bft) SW 236 0 min 0,000 mm 0,0 UV-I 0 W/m 1,4 C 3,2 C 0,0 km/h (0 Bft) 100,00 %
14.11.2019 00:46 25,2 C 3,2 C 34 % 88 % 1004,2 hPa 0,0 l/m 0,7 km/h (0 Bft) SW 236 0 min 0,000 mm 0,0 UV-I 0 W/m 1,4 C 3,2 C 6,4 km/h (2 Bft) 100,00 %
14.11.2019 00:30 25,3 C 3,1 C 34 % 88 % 1004,2 hPa 0,0 l/m 0,8 km/h (0 Bft) SW 235 0 min 0,000 mm 0,0 UV-I 0 W/m 1,3 C 3,1 C 6,4 km/h (2 Bft) 100,00 %
14.11.2019 00:15 25,4 C 3,1 C 34 % 88 % 1004,3 hPa 0,0 l/m 2,0 km/h (1 Bft) W-SW 249 0 min 0,000 mm 0,0 UV-I 0 W/m 1,3 C 3,1 C 8,0 km/h (2 Bft) 99,71 %
14.11.2019 00:00 25,5 C 2,9 C 34 % 89 % 1004,2 hPa 0,0 l/m 2,8 km/h (1 Bft) SW 230 0 min 0,000 mm 0,0 UV-I 0 W/m 1,3 C 2,9 C 9,7 km/h (2 Bft) 100,00 %
13.11.2019 23:45 25,5 C 2,8 C 34 % 89 % 1004,0 hPa 0,0 l/m 3,1 km/h (1 Bft) S 181 0 min 0,000 mm 0,0 UV-I 0 W/m 1,2 C 2,8 C 9,7 km/h (2 Bft) 99,71 %
13.11.2019 23:30 25,5 C 2,4 C 34 % 89 % 1003,9 hPa 0,0 l/m 1,6 km/h (1 Bft) SW 233 0 min 0,000 mm 0,0 UV-I 0 W/m 0,8 C 2,4 C 8,0 km/h (2 Bft) 99,16 %
13.11.2019 23:15 25,6 C 2,1 C 34 % 89 % 1004,0 hPa 0,0 l/m 0,9 km/h (0 Bft) SW 222 0 min 0,000 mm 0,0 UV-I 0 W/m 0,5 C 2,1 C 4,8 km/h (1 Bft) 96,90 %
13.11.2019 23:00 25,7 C 2,1 C 34 % 88 % 1003,9 hPa 0,0 l/m 0,2 km/h (0 Bft) SW 235 0 min 0,000 mm 0,0 UV-I 0 W/m 0,3 C 2,1 C 3,2 km/h (1 Bft) 97,38 %
13.11.2019 22:45 25,9 C 2,4 C 34 % 86 % 1003,8 hPa 0,0 l/m 0,0 km/h (0 Bft) W-SW 238 0 min 0,000 mm 0,0 UV-I 0 W/m 0,3 C 2,4 C 0,0 km/h (0 Bft) 98,60 %
13.11.2019 22:30 25,9 C 2,9 C 34 % 86 % 1003,8 hPa 0,0 l/m 0,2 km/h (0 Bft) W-SW 238 0 min 0,000 mm 0,0 UV-I 0 W/m 0,8 C 2,9 C 3,2 km/h (1 Bft) 100,00 %
13.11.2019 22:15 25,8 C 3,1 C 34 % 87 % 1003,7 hPa 0,0 l/m 0,4 km/h (0 Bft) W-SW 238 0 min 0,000 mm 0,0 UV-I 0 W/m 1,2 C 3,1 C 4,8 km/h (1 Bft) 100,00 %
13.11.2019 22:00 25,7 C 3,1 C 34 % 87 % 1003,7 hPa 0,0 l/m 1,0 km/h (0 Bft) W-SW 237 0 min 0,000 mm 0,0 UV-I 0 W/m 1,2 C 3,1 C 6,4 km/h (2 Bft) 99,72 %
13.11.2019 21:45 25,6 C 2,9 C 35 % 87 % 1003,6 hPa 0,0 l/m 1,3 km/h (1 Bft) SW 228 0 min 0,000 mm 0,0 UV-I 0 W/m 1,0 C 2,9 C 9,7 km/h (2 Bft) 100,00 %
13.11.2019 21:30 25,6 C 2,8 C 35 % 86 % 1003,5 hPa 0,0 l/m 0,6 km/h (0 Bft) S-SW 195 0 min 0,000 mm 0,0 UV-I 0 W/m 0,7 C 2,8 C 4,8 km/h (1 Bft) 99,72 %
13.11.2019 21:15 25,6 C 2,9 C 35 % 85 % 1003,5 hPa 0,0 l/m 0,1 km/h (0 Bft) S 171 0 min 0,000 mm 0,0 UV-I 0 W/m 0,6 C 2,9 C 3,2 km/h (1 Bft) 100,00 %
13.11.2019 21:00 25,6 C 3,1 C 35 % 85 % 1003,3 hPa 0,0 l/m 1,5 km/h (1 Bft) SW 215 0 min 0,000 mm 0,0 UV-I 0 W/m 0,8 C 3,1 C 8,0 km/h (2 Bft) 99,72 %
13.11.2019 20:45 25,9 C 3,2 C 35 % 85 % 1003,2 hPa 0,0 l/m 0,5 km/h (0 Bft) SW 228 0 min 0,000 mm 0,0 UV-I 0 W/m 0,9 C 3,2 C 6,4 km/h (2 Bft) 98,59 %
13.11.2019 20:30 26,2 C 3,3 C 35 % 84 % 1003,2 hPa 0,0 l/m 0,6 km/h (0 Bft) W-SW 244 0 min 0,000 mm 0,0 UV-I 0 W/m 0,9 C 3,3 C 4,8 km/h (1 Bft) 97,40 %
13.11.2019 20:15 26,3 C 3,4 C 35 % 83 % 1003,0 hPa 0,0 l/m 1,2 km/h (1 Bft) S-SW 202 0 min 0,000 mm 0,0 UV-I 0 W/m 0,8 C 3,4 C 8,0 km/h (2 Bft) 97,12 %
13.11.2019 20:00 26,3 C 3,5 C 35 % 83 % 1003,0 hPa 0,0 l/m 2,2 km/h (1 Bft) SW 227 0 min 0,000 mm 0,0 UV-I 0 W/m 0,9 C 3,5 C 9,7 km/h (2 Bft) 98,59 %
13.11.2019 19:45 26,1 C 3,4 C 34 % 83 % 1002,9 hPa 0,0 l/m 1,4 km/h (1 Bft) SW 223 0 min 0,000 mm 0,0 UV-I 0 W/m 0,8 C 3,4 C 6,4 km/h (2 Bft) 99,71 %
13.11.2019 19:30 25,8 C 3,6 C 34 % 82 % 1002,8 hPa 0,0 l/m 1,3 km/h (1 Bft) SW 231 0 min 0,000 mm 0,0 UV-I 0 W/m 0,8 C 3,6 C 6,4 km/h (2 Bft) 100,00 %
13.11.2019 19:15 25,7 C 3,7 C 33 % 81 % 1002,8 hPa 0,0 l/m 1,6 km/h (1 Bft) S 181 0 min 0,000 mm 0,0 UV-I 0 W/m 0,7 C 3,7 C 9,7 km/h (2 Bft) 100,00 %
13.11.2019 19:00 25,8 C 3,8 C 33 % 81 % 1002,9 hPa 0,0 l/m 1,7 km/h (1 Bft) W-SW 249 0 min 0,000 mm 0,0 UV-I 0 W/m 0,8 C 3,8 C 11,3 km/h (2 Bft) 99,71 %
13.11.2019 18:45 25,9 C 3,9 C 33 % 80 % 1003,0 hPa 0,0 l/m 2,1 km/h (1 Bft) SW 226 0 min 0,000 mm 0,0 UV-I 0 W/m 0,8 C 3,9 C 11,3 km/h (2 Bft) 100,00 %
13.11.2019 18:30 25,9 C 3,9 C 33 % 80 % 1002,7 hPa 0,0 l/m 2,4 km/h (1 Bft) SW 231 0 min 0,000 mm 0,0 UV-I 0 W/m 0,8 C 3,9 C 9,7 km/h (2 Bft) 100,00 %
13.11.2019 18:15 25,8 C 3,9 C 33 % 80 % 1002,6 hPa 0,0 l/m 2,5 km/h (1 Bft) SW 229 0 min 0,000 mm 0,0 UV-I 0 W/m 0,8 C 3,9 C 11,3 km/h (2 Bft) 99,72 %
13.11.2019 18:00 25,7 C 3,9 C 33 % 79 % 1002,6 hPa 0,0 l/m 3,0 km/h (1 Bft) SW 225 0 min 0,000 mm 0,0 UV-I 0 W/m 0,6 C 3,9 C 11,3 km/h (2 Bft) 97,75 %
_ Min-Zeit 02:15 06:45 12:15 13:30 18:00 - 22:45 - - - - - - 06:45 06:45 22:45 07:30
Minimum _ 24,8 C 0,1 C 32 % 67 % 1002,6 hPa - 0,0 km/h (0 Bft) - - - - - - -1,0 C 0,1 C 0,0 km/h (0 Bft) 96,50 %
_ Max-Zeit 12:15 13:15 20:00 08:30 10:15 18:00 13:00 - - 10:30 12:00 11:15 12:45 12:30 13:15 13:30 18:30
Maximum _ 26,5 C 7,9 C 35 % 95 % 1007,1 hPa 0,0 l/m 4,1 km/h
N-NO (1 Bft)
- - 15 min 0,127 mm 0,8 UV-I 332 W/m 3,0 C 7,9 C 22,5 km/h
O-NO (4 Bft)
100,00 %
Durchschnitt _ 25,7 C 3,4 C 33 % 85 % 1004,6 hPa #0,0 l/m 1,4 km/h (1 Bft) SW - #3:30 h #0,508 mm 0,6 UV-I 126 W/m 1,0 C 3,4 C 8,0 km/h (2 Bft) 99,09 %